Location: Chicago
(41.8500°N, 87.6500°W)
Time: 13:29:50
(UTC-06:00)

ISS - Visible Passes

Search period start: 27 November 2014 00:00
Search period end: 07 December 2014 00:00
Orbit: 407 x 417 km, 51.6° (Epoch: 27 November)

Date Brightness Start Highest point End Pass type
(mag) Time Alt. Az. Time Alt. Az. Time Alt. Az.
27 Nov -0.3 04:14:57 16° E 04:14:57 16° E 04:15:50 10° E visible
27 Nov -2.4 05:47:47 20° W 05:49:26 34° SW 05:52:26 10° SSE visible
28 Nov -2.7 05:00:16 50° SSE 05:00:16 50° SSE 05:02:57 10° SE visible
29 Nov 0.0 04:12:48 12° ESE 04:12:48 12° ESE 04:13:08 10° ESE visible
29 Nov -1.1 05:45:38 13° WSW 05:46:05 13° SW 05:47:43 10° SSW visible
30 Nov -0.9 04:58:13 15° S 04:58:13 15° S 04:59:04 10° S visible
06 Dec -1.1 18:12:00 10° S 18:13:15 17° S 18:13:15 17° S visible
